Weather History for Tucumcari, NM

Change the Weather History Date:

Saturday, November 19, 2011

  Actual Average Record
Temperature  
Mean Temperature 56 °F -  
Max Temperature 72 °F 61 °F 84 °F (1996)
Min Temperature 39 °F 32 °F 13 °F (1928)
Degree Days  
Heating Degree Days 8    
Growing Degree Days 6 (Base 50)    
Moisture  
Dew Point 21 °F    
Average Humidity 27    
Maximum Humidity 57    
Minimum Humidity 10    
Precipitation  
Precipitation 0.00 in - - ()
Sea Level Pressure  
Sea Level Pressure 29.71 in    
Wind  
Wind Speed 20 mph (WSW)    
Max Wind Speed 33 mph    
Max Gust Speed 44 mph    
Visibility 10 miles    
Events      
Averages and records for this station are not official NWS values.
T = Trace of Precipitation, MM = Missing Value Source: NWS Daily Summary

Daily Weather History Graph

Daily Weather History Graph

Search for Another Location

Airport:

Trip Planner

Search our weather history database for the weather conditions in past years. The results will help you decide how hot, cold, wet, or windy it might be!

Date:

Astronomy

Nov. 19, 2011 Rise Set
Actual Time 6:32 AM MST 4:46 PM MST
Civil Twilight 6:05 AM MST 5:13 PM MST
Nautical Twilight 5:34 AM MST 5:44 PM MST
Astronomical Twilight 5:04 AM MST 6:14 PM MST
Moon 12:09 AM MST (11/19) 12:52 PM MST (11/19)
Length of Visible Light 11h 07m
Length of Day
10h 13m
Last Quarter, 37% of the Moon is Illuminated
Nov 19
Last Quarter
Nov 24
New
Dec 2
First Quarter
Dec 10
Full
Dec 17
Last Quarter

Hourly Weather History & Observations

Time (MST) Temp. Windchill Dew Point Humidity Pressure Visibility Wind Dir Wind Speed Gust Speed Precip Events Conditions
12:53 AM 55.9 °F - 19.9 °F 25% 29.58 in 10.0 mi WSW 17.3 mph 27.6 mph N/A   Clear
1:53 AM 53.1 °F - 19.9 °F 27% 29.60 in 10.0 mi West 15.0 mph - N/A   Clear
2:53 AM 52.0 °F - 21.0 °F 30% 29.61 in 10.0 mi West 17.3 mph - N/A   Clear
3:53 AM 51.1 °F - 21.0 °F 31% 29.59 in 10.0 mi WSW 19.6 mph - N/A   Clear
4:53 AM 53.1 °F - 23.0 °F 31% 29.60 in 10.0 mi WSW 20.7 mph - N/A   Clear
5:53 AM 55.9 °F - 24.1 °F 29% 29.60 in 10.0 mi WSW 26.5 mph 32.2 mph N/A   Clear
6:53 AM 55.9 °F - 24.1 °F 29% 29.62 in 10.0 mi WSW 28.8 mph 39.1 mph N/A   Clear
7:53 AM 57.9 °F - 24.1 °F 27% 29.65 in 10.0 mi WSW 24.2 mph 34.5 mph N/A   Clear
8:53 AM 62.6 °F - 24.8 °F 24% 29.77 in 10.0 mi SW 21.9 mph 33.4 mph N/A   Clear
9:53 AM 64.9 °F - 21.9 °F 19% 29.67 in 10.0 mi SW 21.9 mph 31.1 mph N/A   Clear
10:53 AM 66.9 °F - 23.0 °F 19% 29.65 in 10.0 mi WSW 24.2 mph 34.5 mph N/A   Clear
11:53 AM 70.0 °F - 19.9 °F 15% 29.61 in 10.0 mi WSW 27.6 mph 40.3 mph N/A   Clear
12:53 PM 72.0 °F - 15.1 °F 11% 29.57 in 10.0 mi WSW 33.4 mph 43.7 mph N/A   Clear
1:53 PM 71.6 °F - 15.8 °F 12% 29.73 in 10.0 mi WSW 29.9 mph 38.0 mph N/A   Clear
2:53 PM 71.1 °F - 12.0 °F 10% 29.62 in 10.0 mi WSW 23.0 mph 29.9 mph N/A   Clear
3:53 PM 68.0 °F - 17.1 °F 14% 29.64 in 10.0 mi WSW 18.4 mph - N/A   Clear
4:53 PM 62.6 °F - 19.4 °F 19% 29.78 in 10.0 mi SW 18.4 mph - N/A   Clear
5:53 PM 60.8 °F - 21.2 °F 22% 29.82 in 10.0 mi SW 13.8 mph - N/A   Clear
6:53 PM 60.1 °F - 19.9 °F 21% 29.73 in 10.0 mi SW 20.7 mph 27.6 mph N/A   Clear
7:53 PM 59.0 °F - 19.9 °F 22% 29.76 in 10.0 mi WSW 10.4 mph - N/A   Clear
8:53 PM 57.0 °F - 21.0 °F 25% 29.78 in 10.0 mi WSW 12.7 mph - N/A   Clear
9:30 PM 46.4 °F 39.8 °F 24.8 °F 43% 29.93 in 10.0 mi North 16.1 mph - N/A   Clear
9:53 PM 45.0 °F 38.2 °F 25.0 °F 46% 29.88 in 10.0 mi NNE 15.0 mph - N/A   Clear
10:53 PM 41.0 °F 32.5 °F 26.6 °F 57% 30.00 in 10.0 mi NNE 17.3 mph - N/A   Clear
11:53 PM 39.0 °F 31.4 °F 25.0 °F 57% 29.93 in 10.0 mi NNE 12.7 mph - N/A   Clear